EHI
4 5 5 5 5 4 2 1 1 3 4 5 5 4 3 3 3 3 3 3 2 3 3 3 3 2 4 6 7 5 2 0 0 2 4 6 7 5 2 1 0 0 0
2 2 4 4 4 3 2 2 3 4 5 5 5 3 3 3 2 1 1 1 1 3 3 3 3 2 3 5 6 5 2 0 0 1 4 5 5 4 2 1 0 0 0
0 0 1 2 2 1 2 4 6 7 7 6 4 3 2 2 1 0 0 0 1 3 3 3 3 3 3 3 4 4 2 1 1 1 2 3 3 3 3 1 0 0 0
0 0 0 1 1 1 3 6 8 8 7 6 5 2 1 1 0 0 0 1 2 3 3 3 3 3 2 1 1 1 1 0 0 0 0 1 2 3 2 1 0 0 1
0 0 0 0 1 2 4 6 7 7 6 6 4 2 0 0 0 0 0 1 2 3 3 3 3 1 1 0 0 0 0 0 0 0 1 2 2 2 2 0 0 1 1
0 0 0 1 2 3 4 5 6 6 5 3 2 0 0 0 0 0 0 1 2 2 3 3 2 1 0 0 0 0 0 0 0 1 2 2 3 3 2 1 0 1 1
0 0 1 2 3 3 3 4 4 4 3 2 1 0 0 0 0 0 0 1 1 1 1 2 1 0 0 0 0 0 0 0 0 1 1 1 2 2 2 1 1 1 0
0 0 1 2 3 3 3 3 3 3 3 3 2 1 0 0 0 0 0 0 0 0 0 0 0 0 0 0 0 0 0 0 0 0 0 0 1 1 1 1 1 0 0
0 0 0 1 3 3 3 3 3 3 3 3 2 2 1 1 0 0 0 0 0 0 0 0 0 0 0 0 0 0 0 0 0 0 0 0 0 0 0 0 0 0 0
0 0 0 1 2 3 3 3 3 3 3 2 1 1 1 1 0 0 0 0 0 0 0 0 0 0 0 0 0 0 0 0 0 0 0 0 0 0 0 0 0 0 0
0 0 0 1 2 3 3 3 3 2 1 1 0 0 1 1 0 0 0 0 0 0 0 0 0 0 0 0 0 0 0 0 0 0 0 0 0 0 0 0 0 0 0
0 0 0 0 1 1 3 3 3 1 0 0 0 0 0 0 0 0 0 0 0 0 0 0 0 0 0 0 0 0 0 0 0 0 0 0 0 0 0 0 0 0 0
0 0 0 0 0 1 2 2 2 1 0 0 0 0 0 0 0 0 0 0 0 0 0 0 0 0 0 0 0 0 0 0 0 0 0 0 0 0 0 0 0 0 0
1 0 0 0 0 0 1 1 1 0 0 0 0 0 0 0 0 0 0 0 0 0 0 0 0 0 0 0 0 0 0 0 0 0 0 0 0 0 0 0 0 0 0
1 0 0 0 0 0 0 0 0 0 0 0 0 0 0 0 0 0 0 0 0 0 0 0 0 0 0 0 0 0 0 0 0 0 0 0 0 0 0 0 0 0 0
1 0 0 0 0 0 0 0 0 0 0 0 0 0 0 0 0 0 0 0 0 0 0 0 0 0 0 0 0 0 0 0 0 0 0 0 0 0 0 0 0 0 0
0 0 0 0 0 0 0 0 0 0 0 0 0 0 0 0 0 0 0 0 0 0 0 0 0 0 0 0 0 0 0 0 0 0 0 0 0 0 0 0 0 0 0
0 0 0 0 0 0 0 0 0 0 0 0 0 0 0 0 0 0 0 0 0 0 0 0 0 0 0 0 0 0 0 0 0 0 0 0 0 0 0 0 0 0 0
0 0 0 0 0 0 0 0 0 0 0 0 0 0 0 0 0 0 0 0 0 0 0 0 0 0 0 0 0 0 0 0 0 0 0 0 0 0 0 0 0 0 0
0 0 0 0 0 0 0 0 0 0 0 0 0 0 0 0 0 0 0 0 0 0 0 0 0 0 0 0 0 0 0 0 0 0 0 0 0 0 0 0 0 0 0
0 0 0 0 0 0 0 0 0 0 0 0 0 0 0 0 0 0 0 0 0 0 0 0 0 0 0 0 0 0 0 0 0 0 0 0 0 0 0 0 0 0 0
0 0 0 0 0 0 0 0 0 0 0 0 0 0 0 0 0 0 0 0 0 0 0 0 0 0 0 0 0 0 0 0 0 0 0 0 0 0 0 0 0 0 0
0 0 0 0 0 0 0 0 0 0 0 0 0 0 0 0 0 0 0 0 0 0 0 0 0 0 0 0 0 0 0 0 0 0 0 0 0 0 0 0 0 0 0
0 0 0 0 0 0 0 0 0 0 0 0 0 0 0 0 0 0 0 0 0 0 0 0 0 0 0 0 0 0 0 0 0 0 0 0 0 0 0 0 0 0 0
0 0 0 0 0 0 0 0 0 0 0 0 0 0 0 0 0 0 0 0 0 0 0 0 0 0 0 0 0 0 0 0 0 0 0 0 0 0 0 0 0 0 0
0 0 0 0 0 0 0 0 0 0 0 0 0 0 0 0 0 0 0 0 0 0 0 0 0 0 0 0 0 0 0 0 0 0 0 0 0 0 0 0 0 0 0
Wind_Speed
2 2 1 2 2 2 2 2 2 1 2 2 2 2 2 3 3 3 4 3 4 4 5 4 5 5 5 4 4 4 4 5 7 7 5 4 5 7 6 7 7 7 5
2 2 2 2 3 2 2 1 1 1 2 2 2 2 3 2 3 3 4 4 4 4 4 4 5 4 5 5 4 5 5 5 7 8 7 6 5 6 6 7 7 6 6
2 2 2 2 2 2 2 2 2 2 2 2 2 2 2 2 3 3 4 4 4 4 4 4 5 5 5 4 5 5 5 5 6 7 7 5 5 5 6 7 7 6 7
2 2 2 2 2 2 2 2 2 2 2 2 2 2 2 3 3 3 3 3 4 3 3 4 4 5 5 5 5 5 5 6 6 6 6 6 5 5 5 6 6 5 6
2 2 2 2 2 2 2 2 2 2 2 1 2 2 2 2 2 3 3 3 3 3 3 4 4 4 4 5 5 5 6 6 6 6 6 6 5 5 6 6 7 6 6
2 2 1 2 2 2 2 2 1 1 1 1 1 2 2 2 3 3 5 4 4 3 3 4 4 3 2 4 4 5 6 7 7 7 7 7 7 7 6 6 7 7 6
2 2 1 1 1 2 2 2 1 1 1 1 1 2 2 2 2 2 3 4 3 3 3 4 4 3 3 4 3 5 6 6 7 8 9 8 8 7 8 9 7 8 7
2 1 1 2 2 2 2 1 1 1 1 1 1 2 2 1 1 2 4 4 3 2 3 4 4 4 4 5 7 6 6 5 5 6 7 8 8 7 7 9 9 8 8
2 1 1 2 2 2 1 1 1 1 2 2 1 2 2 1 1 1 5 3 2 3 3 3 4 4 4 5 6 6 7 6 4 5 6 8 8 8 8 7 7 7 6
2 2 2 2 2 2 2 2 1 2 2 2 1 2 2 1 1 1 4 4 3 3 2 2 1 3 4 5 6 7 7 7 7 6 5 6 7 6 8 7 6 7 6
1 1 1 1 2 2 1 1 2 2 1 2 2 2 1 0 1 1 2 4 4 4 4 3 2 3 3 5 7 6 7 9 8 7 5 5 4 3 3 4 5 5 6
1 1 1 1 1 1 2 2 2 2 2 2 2 3 2 2 1 2 3 4 5 5 5 4 3 2 5 7 6 5 7 9 6 5 5 5 4 4 4 4 4 5 6
1 1 1 1 1 2 2 3 3 3 3 2 2 3 2 1 2 5 5 5 5 5 4 4 5 6 8 7 6 7 7 5 5 5 5 5 4 4 5 4 4 5 6
2 2 2 2 2 2 3 3 3 3 3 2 2 3 2 2 2 2 3 4 6 6 5 5 8 10 9 6 5 4 4 4 5 5 5 5 4 4 4 4 4 4 4
3 2 3 3 3 3 3 2 3 2 3 4 3 3 3 3 2 4 4 4 4 4 6 5 4 3 4 3 3 3 4 4 4 4 5 5 4 4 4 4 4 5 5
3 3 3 3 3 3 3 2 1 2 1 2 3 4 3 2 2 3 3 4 5 5 6 5 4 4 4 4 4 4 4 4 4 4 4 5 5 5 5 4 4 4 5
4 3 3 4 4 4 4 3 3 3 4 4 5 5 5 5 5 5 6 6 7 6 5 4 4 4 5 5 4 5 4 4 4 5 4 4 4 5 5 5 4 4 4
5 4 4 4 4 4 4 4 4 4 3 3 5 7 8 8 8 8 6 5 5 5 4 4 4 4 4 5 5 5 5 4 4 4 4 4 4 5 5 5 4 5 5
5 3 3 4 4 4 4 4 4 4 4 3 2 4 7 8 8 8 7 5 5 4 4 4 4 4 4 5 5 5 5 4 5 5 4 5 4 4 5 5 4 4 5
4 3 4 5 5 4 4 4 3 3 3 3 3 2 2 4 4 4 4 4 4 4 4 4 4 4 4 5 5 4 4 4 5 4 5 5 5 5 5 5 5 5 4
4 3 5 6 5 4 4 4 3 3 3 3 3 1 3 5 4 4 4 3 4 4 4 4 4 4 4 4 4 5 5 5 4 4 4 5 5 5 4 4 4 5 5
4 4 4 4 4 4 4 4 4 4 4 4 3 2 4 5 4 3 3 3 3 3 3 3 4 3 4 4 4 5 5 5 5 5 5 5 4 4 5 4 4 4 4
5 5 4 4 4 3 5 5 4 4 4 4 3 3 2 3 3 3 3 3 3 3 3 3 3 3 3 4 4 4 5 5 5 5 5 5 5 4 4 4 4 5 4
4 5 4 4 4 4 4 4 4 4 3 3 3 3 3 3 3 3 3 3 3 2 3 3 3 3 4 4 4 4 4 6 6 5 6 5 5 4 4 4 4 4 4
4 4 4 4 4 4 3 3 3 3 3 3 3 3 3 3 3 3 3 3 3 3 3 3 2 3 4 5 5 5 5 5 5 6 5 4 4 4 4 5 4 4 4
4 4 4 4 3 3 3 3 3 3 3 3 3 3 3 3 3 3 3 3 3 3 3 2 3 3 4 3 4 4 3 4 5 7 6 4 4 4 5 4 4 4 3
Wind_Direction
194 197 213 213 214 219 221 227 231 248 247 250 261 280 271 271 277 277 283 278 272 272 272 272 277 286 287 284 280 278 277 278 283 294 298 308 292 284 283 279 275 272 251
186 189 187 202 209 212 214 227 230 236 239 239 249 264 268 270 272 273 278 282 278 281 288 289 288 286 282 281 285 282 280 276 279 290 293 293 290 285 280 280 278 272 268
181 178 186 206 203 206 219 234 236 236 247 255 265 278 287 281 275 281 286 290 294 294 293 292 290 286 283 290 285 287 287 286 285 285 288 293 287 291 288 277 275 272 268
192 194 201 207 208 223 233 237 243 243 243 252 268 279 290 296 297 301 299 305 301 298 294 289 294 295 288 289 283 284 291 292 286 284 289 294 296 298 293 289 283 268 270
203 206 202 202 209 215 229 241 242 240 236 238 269 278 285 292 324 321 305 305 303 298 296 297 300 301 308 293 302 309 302 296 297 296 296 303 307 310 300 297 293 288 277
215 224 211 207 208 213 224 228 236 236 245 260 303 306 313 345 38 341 302 302 301 300 308 307 288 263 272 251 262 282 290 291 299 298 299 302 299 299 302 295 294 294 291
215 217 215 220 216 220 222 211 217 228 238 271 307 319 335 29 43 349 316 294 294 314 313 306 308 340 316 317 293 254 255 247 257 279 291 296 300 302 299 290 288 290 288
220 225 238 231 232 232 221 233 239 235 240 255 285 303 313 4 61 330 304 279 295 306 304 304 305 320 347 337 317 313 310 304 287 277 287 293 298 304 297 288 287 282 275
219 229 250 249 233 233 232 232 232 230 249 256 268 287 295 323 98 304 293 287 295 295 297 312 315 326 19 334 306 306 307 302 271 256 264 273 278 275 278 285 286 284 285
240 242 247 251 240 239 239 242 231 222 237 259 270 285 291 307 107 258 289 289 302 296 288 282 60 359 1 327 309 310 307 312 311 298 268 254 256 250 238 255 277 283 290
259 248 246 249 233 228 227 222 231 232 238 261 273 268 259 308 144 164 288 299 311 307 313 317 20 66 332 305 295 301 309 304 295 292 292 294 289 287 279 273 282 283 286
256 253 245 240 234 190 198 215 221 230 227 234 245 252 233 189 173 187 228 265 300 302 308 320 354 357 301 285 286 301 294 286 289 305 310 314 316 318 320 312 300 293 286
238 238 241 222 215 220 219 216 222 225 241 244 246 257 260 239 181 195 215 235 250 271 297 315 293 275 275 266 245 256 270 282 303 308 311 312 311 315 307 297 288 275 273
230 228 220 216 224 219 235 234 243 254 257 261 263 272 279 269 270 249 231 226 226 241 267 261 239 242 249 263 265 256 271 298 305 303 306 309 310 306 298 298 294 291 284
233 235 230 224 227 231 233 269 265 277 304 287 283 279 284 288 350 359 320 312 318 330 311 284 285 292 290 296 296 295 293 291 287 298 303 305 304 301 298 294 288 285 280
232 237 242 238 232 236 226 213 205 255 263 259 285 292 294 307 313 312 301 291 285 287 284 285 300 308 310 311 309 306 299 305 309 305 301 304 305 303 301 298 291 289 288
240 245 255 250 243 245 244 243 236 218 221 230 233 238 247 261 268 270 270 272 263 246 256 281 298 306 306 305 307 308 310 320 316 305 306 306 304 301 299 300 299 297 290
244 234 246 253 255 255 254 253 253 254 235 224 212 214 222 230 241 251 255 260 252 232 263 285 292 295 297 302 307 309 310 313 309 306 305 302 299 299 299 298 299 304 298
247 247 249 259 256 253 254 254 251 251 259 259 253 195 206 218 223 233 230 255 283 287 288 291 296 303 307 306 308 306 305 306 309 305 302 301 298 296 297 296 299 299 288
238 235 249 255 253 250 248 253 254 252 257 262 263 270 223 226 243 230 229 257 276 289 296 298 302 305 306 307 308 308 307 305 306 302 304 300 298 295 295 296 300 297 294
252 218 225 247 250 253 254 257 257 256 260 261 260 269 289 275 276 281 278 275 284 293 300 307 307 300 302 306 308 309 307 305 308 308 305 301 300 302 302 299 296 296 297
263 249 240 247 249 255 262 260 258 256 260 263 258 217 208 254 280 287 291 293 295 297 302 299 300 313 324 317 318 316 313 314 317 312 306 303 301 304 306 302 300 298 298
255 254 247 246 245 243 250 253 254 257 265 273 278 280 263 278 291 294 300 302 303 310 305 292 294 314 321 316 316 318 322 325 324 319 313 309 307 306 306 307 303 298 304
262 262 255 245 247 250 252 255 254 257 261 266 271 273 276 281 292 307 305 301 299 297 299 295 299 319 320 317 319 334 346 335 318 308 307 309 312 318 319 317 311 314 310
265 266 264 258 253 256 258 258 258 259 261 260 262 268 275 281 292 303 309 308 300 295 296 292 297 306 313 324 339 353 356 334 317 314 303 306 318 326 324 323 325 327 332
263 266 265 259 253 254 258 262 263 265 265 270 271 275 281 282 288 301 304 307 305 302 297 293 311 321 326 336 356 354 344 326 317 310 302 314 324 333 330 326 340 340 346